"2010-10-12 00:00:00",239341,2.475,77.35,0.946,0.048,15.83,105.9606,14.53,15.42,40.8,0,110.6,13.27,15.33,39.3
"2010-10-12 00:00:30",239342,2.302,76.97,0.902,0.041,15.71,105.965,14.54,15.43,40.72,0,110.6,13.27,15.35,39.0
"2010-10-12 00:01:00",239343,2.108,76.06,1.014,0.058,15.68,105.9668,14.55,15.42,40.67,0,110.6,13.27,15.35,38.1
"2010-10-12 00:01:30",239344,2.353,64.83,3.818,0.133,15.67,105.9686,14.55,15.42,41.03,0,110.6,13.27,15.36,26.8
"2010-10-12 00:02:00",239345,2.358,68.61,1.728,0.144,15.62,105.9695,14.55,15.42,40.99,0,110.6,13.27,15.36,30.6
"2010-10-12 00:02:30",239346,2.316,70.14,2.626,0.144,15.65,105.9722,14.56,15.43,40.93,0,110.6,13.27,15.36,32.1
"2010-10-12 00:03:00",239347,2.264,66.96,2.895,0.135,15.6,105.9731,14.56,15.41,40.59,0,110.6,13.27,15.37,29.0
"2010-10-12 00:03:30",239348,2.065,71.62,3.033,0.119,15.67,105.974,14.57,15.43,40.81,0,110.6,13.27,15.37,33.6
"2010-10-12 00:04:00",239349,2.385,78.06,1.966,0.115,15.7,105.9743,14.57,15.41,40.44,0,110.5,13.27,15.37,40.1
"2010-10-12 00:04:30",239350,2.268,92.9,9.75,0.209,15.68,105.9755,14.57,15.43,41.26,0,110.5,13.27,15.37,54.9
"2010-10-12 00:05:00",239351,2.024,110.9,4.405,0.109,15.65,105.9761,14.57,15.4,41.24,0,110.5,13.27,15.37,72.9
"2010-10-12 00:05:30",239352,2.088,112,3.145,0.13,15.64,105.9785,14.58,15.4,41.68,0,110.5,13.27,15.38,74.0
"2010-10-12 00:06:00",239353,2.369,106.5,3.938,0.199,15.74,105.9509,14.51,15.4,42.11,0,110.5,13.27,15.31,68.5
"2010-10-12 00:06:30",239354,2.459,103.4,1.549,0.102,15.87,105.9474,14.5,15.39,42.09,0,110.5,13.27,15.30,65.4
"2010-10-12 00:07:00",239355,2.293,111.4,1.71,0.068,15.81,105.948,14.5,15.37,42.05,0,110.5,13.27,15.30,73.4
"2010-10-12 00:07:30",239356,2.084,105.5,6.746,0.104,15.9,105.948,14.5,15.36,42.09,0,110.5,13.27,15.30,67.5
"2010-10-12 00:08:00",239357,2.444,94.4,2.973,0.193,16,105.948,14.5,15.36,42.12,0,110.5,13.27,15.30,56.4
"2010-10-12 00:08:30",239358,2.47,103.5,3.5,0.071,16.09,105.9477,14.5,15.35,42.13,0,110.5,13.27,15.30,65.5
"2010-10-12 00:09:00",239359,2.438,103.8,5.446,0.173,16.1,105.9474,14.5,15.33,42.02,0,110.5,13.27,15.30,65.8
"2010-10-12 00:09:30",239360,2.374,95.6,2.532,0.261,16.07,105.9465,14.5,15.33,42.09,0,110.5,13.27,15.30,57.6
"2010-10-12 00:10:00",239361,2.458,91.2,2.277,0.114,16.16,105.9443,14.49,15.37,42.16,0,110.5,13.27,15.29,53.2
"2010-10-12 00:10:30",239362,3.283,96.9,7.189,1.294,17.85,105.9429,14.49,15.44,42.28,0,110.5,13.23,15.29,58.9
"2010-10-12 00:11:00",239363,3.277,95.8,6.63,1.274,17.86,105.9403,14.48,15.43,42.12,0,110.5,13.23,15.28,57.8
"2010-10-12 00:11:30",239364,2.25,94,1.244,0.101,15.55,105.9398,14.48,15.33,42.01,0,110.5,13.27,15.28,56.0
"2010-10-12 00:12:00",239365,2.257,92.4,1.9,0.222,15.42,105.9372,14.47,15.34,41.99,0,110.5,13.27,15.27,54.4
"2010-10-12 00:12:30",239366,2.066,86.8,3.638,0.052,15.42,105.937,14.47,15.34,41.89,0,110.5,13.27,15.27,48.8
"2010-10-12 00:13:00",239367,1.9,82.5,3.393,0.131,15.51,105.9327,14.46,15.32,41.92,0,110.5,13.27,15.26,44.5
"2010-10-12 00:13:30",239368,1.839,92.5,4.397,0.111,15.6,105.928,14.45,15.33,41.88,0,110.5,13.27,15.25,54.5
"2010-10-12 00:14:00",239369,1.861,96.7,3.796,0.127,15.6,105.9226,14.43,15.33,42.25,0,110.5,13.28,15.24,58.7
"2010-10-12 00:14:30",239370,2.191,92.7,1.635,0.092,15.75,105.915,14.42,15.44,42.43,0,110.5,13.28,15.22,54.7
"2010-10-12 00:15:00",239371,3.362,98.2,5.721,1.341,17.83,105.9142,14.41,15.42,42.18,0,110.5,13.24,15.22,60.2
"2010-10-12 00:15:30",239372,2.825,87.6,4.82,0.716,16.4,105.9142,14.41,15.48,42.02,0,110.5,13.25,15.22,49.6
"2010-10-12 00:16:00",239373,3.609,91.7,6.103,1.419,17.06,105.9142,14.41,15.35,41.14,0,110.5,13.25,15.22,53.7
"2010-10-12 00:16:30",239374,2.345,83.2,1.741,0.05,14.82,105.9142,14.41,15.33,40.97,0,110.5,13.29,15.22,45.2
"2010-10-12 00:17:00",239375,2.262,82.8,2.577,0.097,14.5,105.9142,14.41,15.32,41.38,0,110.5,13.29,15.22,44.8
"2010-10-12 00:17:30",239376,2.382,80.2,1.652,0.092,14.56,105.9162,14.42,15.32,40.96,0,110.5,13.29,15.22,42.2
"2010-10-12 00:18:00",239377,2.716,82.4,2.464,0.214,14.61,105.9192,14.43,15.33,40.69,0,110.5,13.29,15.23,44.4
"2010-10-12 00:18:30",239378,2.94,84.2,2.394,0.151,14.84,105.9249,14.44,15.33,40.5,0,110.5,13.29,15.24,46.2
"2010-10-12 00:19:00",239379,2.9,85.4,2.388,0.095,14.96,105.9303,14.45,15.32,40.51,0,110.5,13.29,15.26,47.4
"2010-10-12 00:19:30",239380,3.183,90.5,1.993,0.062,15.15,105.9359,14.47,15.34,41.4,0,110.5,13.29,15.27,52.5
"2010-10-12 00:20:00",239381,3.086,89.4,2.243,0.062,15.4,105.9377,14.47,15.33,40.88,0,110.5,13.29,15.28,51.4
"2010-10-12 00:20:30",239382,2.925,94.3,4.393,0.197,15.46,105.9416,14.48,15.32,41.26,0,110.5,13.29,15.29,56.3
"2010-10-12 00:21:00",239383,3.03,86.6,0.965,0.044,15.6,105.9443,14.49,15.33,40.58,0,110.5,13.29,15.29,48.6
"2010-10-12 00:21:30",239384,2.901,92.1,5.785,0.55,15.69,105.9467,14.5,15.33,41.01,0,110.5,13.25,15.30,54.1
"2010-10-12 00:22:00",239385,3.662,96.4,4.245,1.542,17.74,105.9488,14.5,15.46,41.43,0,110.5,13.25,15.30,58.4
"2010-10-12 00:22:30",239386,2.453,92.3,3.968,0.364,15.61,105.9454,14.49,15.33,41.9,0,110.5,13.25,15.30,54.3
"2010-10-12 00:23:00",239387,3.811,101.3,7.604,1.347,17.77,105.9325,14.46,15.49,42.04,0,110.5,13.25,15.26,63.3
"2010-10-12 00:23:30",239388,2.514,94.1,1.91,0.165,14.94,105.9277,14.45,15.32,42.01,0,110.5,13.29,15.25,56.1
"2010-10-12 00:24:00",239389,2.32,99.1,3.383,0.217,14.52,105.9173,14.42,15.31,42.22,0,110.5,13.29,15.22,61.1
"2010-10-12 00:24:30",239390,2.85,94.4,4.831,0.224,14.63,105.9162,14.42,15.32,42.12,0,110.5,13.29,15.22,56.4
"2010-10-12 00:25:00",239391,3.14,88.2,2.118,0.174,14.83,105.9162,14.42,15.31,42.35,0,110.5,13.29,15.22,50.2
"2010-10-12 00:25:30",239392,3.058,91.9,1.342,0.079,14.94,105.9162,14.42,15.3,42.57,0,110.5,13.29,15.22,53.9
"2010-10-12 00:26:00",239393,2.701,96.3,2.037,0.161,15.12,105.9162,14.42,15.32,42.64,0,110.5,13.29,15.22,58.3
"2010-10-12 00:26:30",239394,3.545,110,8.19,1.291,17.39,105.9162,14.42,15.36,42.8,0,110.5,13.25,15.22,72.0
"2010-10-12 00:27:00",239395,3.12,107.4,8.72,1.181,17.12,105.9162,14.42,15.45,42.9,0,110.5,13.25,15.22,69.4
"2010-10-12 00:27:30",239396,3.53,109,7.728,1.348,17.35,105.9162,14.42,15.45,42.93,0,110.5,13.25,15.22,71.0
"2010-10-12 00:28:00",239397,2.322,107.4,1.942,0.067,14.75,105.9114,14.41,15.27,42.51,0,110.5,13.29,15.21,69.4
"2010-10-12 00:28:30",239398,2.319,107,1.196,0.042,14.46,105.9088,14.4,15.27,42.18,0,110.5,13.29,15.20,69.0
"2010-10-12 00:29:00",239399,2.249,108.8,1.776,0.035,14.4,105.9105,14.4,15.27,42.33,0,110.5,13.29,15.21,70.8
"2010-10-12 00:29:30",239400,2.372,107.6,2.357,0.149,14.63,105.9094,14.4,15.27,42.4,0,110.5,13.29,15.20,69.6
"2010-10-12 00:30:00",239401,2.686,110.4,1.652,0.098,14.92,105.9043,14.39,15.27,42.57,0,110.5,13.3,15.19,72.4
"2010-10-12 00:30:30",239402,2.607,104.1,5.07,0.302,15.07,105.8945,14.36,15.27,42.6,0,110.4,13.3,15.16,66.1
"2010-10-12 00:31:00",239403,3.108,98.8,3.785,0.129,15.3,105.8911,14.35,15.27,42.66,0,110.4,13.3,15.16,60.8
"2010-10-12 00:31:30",239404,3.051,94.1,5.759,0.563,15.75,105.8863,14.34,15.36,42.77,0,110.5,13.3,15.14,56.1
"2010-10-12 00:32:00",239405,4.066,95.6,6.517,1.404,17.19,105.8838,14.34,15.35,42.69,0,110.4,13.27,15.14,57.6
"2010-10-12 00:32:30",239406,3.037,104,4.737,0.999,16.64,105.8838,14.34,15.39,42.73,0,110.4,13.27,15.14,66.0
"2010-10-12 00:33:00",239407,2.55,100.9,1.559,0.084,15.24,105.885,14.34,15.25,42.68,0,110.4,13.3,15.14,62.9
"2010-10-12 00:33:30",239408,2.43,99.2,1.789,0.109,15.1,105.8895,14.35,15.26,42.66,0,110.4,13.3,15.15,61.2
"2010-10-12 00:34:00",239409,3.161,100.5,7.651,1.196,16.73,105.891,14.35,15.36,42.7,0,110.4,13.27,15.16,62.5
"2010-10-12 00:34:30",239410,3.284,103.8,5.464,1.186,16.24,105.8985,14.37,15.34,42.63,0,110.4,13.27,15.18,65.8
"2010-10-12 00:35:00",239411,3.572,108,6.01,1.324,17.13,105.902,14.38,15.38,42.64,0,110.4,13.27,15.18,70.0
"2010-10-12 00:35:30",239412,2.533,97.2,3.591,0.204,14.93,105.9035,14.39,15.25,42.53,0,110.4,13.31,15.19,59.2
"2010-10-12 00:36:00",239413,2.37,102.7,2.98,0.148,15.02,105.9092,14.4,15.25,42.55,0,110.4,13.31,15.20,64.7
"2010-10-12 00:36:30",239414,2.084,103.8,3.26,0.055,15.11,105.9113,14.41,15.26,42.56,0,110.4,13.27,15.21,65.8
"2010-10-12 00:37:00",239415,3.391,112.6,6.041,1.419,17.33,105.9125,14.41,15.42,42.65,0,110.4,13.27,15.21,74.6
"2010-10-12 00:37:30",239416,2.064,104.4,3.802,0.136,14.86,105.917,14.42,15.25,42.43,0,110.4,13.31,15.22,66.4
"2010-10-12 00:38:00",239417,2.266,107,6.606,0.819,14.99,105.9179,14.42,15.26,42.4,0,110.4,13.27,15.22,69.0
"2010-10-12 00:38:30",239418,2.662,103.3,6.217,1.24,16.44,105.9182,14.42,15.38,42.53,0,110.4,13.27,15.23,65.3
"2010-10-12 00:39:00",239419,2.709,98.7,5.938,1.066,15.79,105.9182,14.42,15.25,42.45,0,110.4,13.27,15.23,60.7
"2010-10-12 00:39:30",239420,2.175,101.3,2.895,0.073,14.88,105.9176,14.42,15.25,42.42,0,110.4,13.31,15.22,63.3
"2010-10-12 00:40:00",239421,2.104,105.9,1.369,0.046,14.62,105.9162,14.42,15.24,42.5,0,110.4,13.31,15.22,67.9
"2010-10-12 00:40:30",239422,2.106,106.5,2.327,0.052,14.75,105.9137,14.41,15.25,42.55,0,110.4,13.31,15.21,68.5
"2010-10-12 00:41:00",239423,2.093,100.4,1.677,0.062,15.01,105.9139,14.41,15.24,42.59,0,110.4,13.32,15.21,62.4
"2010-10-12 00:41:30",239424,2.213,105,1.395,0.126,15.11,105.9083,14.4,15.24,42.57,0,110.4,13.31,15.20,67.0
"2010-10-12 00:42:00",239425,3.387,111.9,7.03,1.377,17.15,105.9066,14.39,15.41,42.51,0,110.4,13.27,15.20,73.9
"2010-10-12 00:42:30",239426,2.397,102,2.675,0.076,15.19,105.9086,14.4,15.25,42.47,0,110.4,13.3,15.20,64.0
"2010-10-12 00:43:00",239427,2.285,99.4,2.723,0.067,14.91,105.899,14.37,15.24,42.58,0,110.4,13.3,15.18,61.4
"2010-10-12 00:43:30",239428,2.314,96.3,1.653,0.045,14.84,105.89,14.35,15.24,42.56,0,110.4,13.31,15.15,58.3
"2010-10-12 00:44:00",239429,2.307,97.4,1.989,0.132,14.97,105.8843,14.34,15.24,42.74,0,110.4,13.31,15.14,59.4
"2010-10-12 00:44:30",239430,2.223,97.8,1.435,0.063,15.1,105.8843,14.34,15.26,42.7,0,110.4,13.31,15.14,59.8
"2010-10-12 00:45:00",239431,2.655,94.7,4.859,0.682,15.89,105.8843,14.34,15.29,42.31,0,110.4,13.28,15.14,56.7
"2010-10-12 00:45:30",239432,3.326,100,5.295,1.388,17.02,105.8843,14.34,15.26,42.13,0,110.4,13.27,15.14,62.0
"2010-10-12 00:46:00",239433,3.244,101.5,7.02,1.27,17.44,105.8843,14.34,15.41,42.11,0,110.4,13.27,15.14,63.5
"2010-10-12 00:46:30",239434,2.447,96.7,1.264,0.053,15.03,105.8843,14.34,15.24,41.69,0,110.4,13.31,15.14,58.7
"2010-10-12 00:47:00",239435,3.002,101.4,4.906,1.02,15.67,105.8843,14.34,15.22,41.52,0,110.4,13.28,15.14,63.4
"2010-10-12 00:47:30",239436,3.801,101.2,6.348,1.394,17.36,105.8849,14.34,15.42,41.64,0,110.4,13.28,15.14,63.2
"2010-10-12 00:48:00",239437,2.62,97.9,1.524,0.062,14.85,105.8843,14.34,15.24,41.73,0,110.4,13.28,15.14,59.9
"2010-10-12 00:48:30",239438,2.822,93.6,2.269,0.14,14.68,105.8849,14.34,15.24,41.44,0,110.4,13.32,15.14,55.6
"2010-10-12 00:49:00",239439,2.92,96.9,1.42,0.07,14.72,105.8843,14.34,15.24,41.23,0,110.4,13.32,15.14,58.9
"2010-10-12 00:49:30",239440,3.287,97.6,4.155,0.989,15.46,105.8855,14.34,15.26,41.12,0,110.4,13.28,15.14,59.6
"2010-10-12 00:50:00",239441,4.277,102.9,6.696,1.392,17.48,105.8876,14.34,15.33,41.44,0,110.4,13.28,15.15,64.9
"2010-10-12 00:50:30",239442,3.087,98.3,1.298,0.075,15.23,105.8886,14.35,15.22,41.84,0,110.4,13.32,15.15,60.3
"2010-10-12 00:51:00",239443,3.088,99.3,0.564,0.038,15.21,105.8887,14.35,15.21,41.91,0,110.4,13.32,15.15,61.3
"2010-10-12 00:51:30",239444,3.137,99.8,0.541,0.033,15.28,105.8875,14.34,15.26,42.08,0,110.4,13.32,15.15,61.8
"2010-10-12 00:52:00",239445,3.993,106.3,6.887,1.331,16.98,105.8874,14.34,15.32,42.14,0,110.4,13.28,15.15,68.3
"2010-10-12 00:52:30",239446,2.965,101.7,1.212,0.048,14.77,105.8806,14.33,15.2,42,0,110.4,13.32,15.13,63.7
"2010-10-12 00:53:00",239447,2.951,101.1,0.858,0.047,14.67,105.8762,14.32,15.2,41.97,0,110.4,13.32,15.12,63.1
"2010-10-12 00:53:30",239448,2.995,105.5,1.141,0.068,14.55,105.8731,14.31,15.19,42.27,0,110.4,13.32,15.11,67.5
"2010-10-12 00:54:00",239449,3.09,103.5,1.18,0.062,14.72,105.8747,14.31,15.2,42.29,0,110.4,13.32,15.11,65.5
"2010-10-12 00:54:30",239450,3.038,102.7,1.294,0.057,14.94,105.8771,14.32,15.2,42.43,0,110.4,13.32,15.12,64.7
"2010-10-12 00:55:00",239451,3.493,105.3,6.106,0.961,16.17,105.8789,14.32,15.31,42.54,0,110.4,13.29,15.12,67.3
"2010-10-12 00:55:30",239452,4.006,108.7,6.853,1.337,16.75,105.8798,14.32,15.24,42.57,0,110.4,13.29,15.13,70.7
"2010-10-12 00:56:00",239453,3.635,107.7,5.746,1.119,16.66,105.8833,14.33,15.34,42.68,0,110.4,13.29,15.14,69.7
"2010-10-12 00:56:30",239454,4.237,113.8,6.8,1.392,17.53,105.8839,14.34,15.29,42.57,0,110.4,13.29,15.14,75.8
"2010-10-12 00:57:00",239455,3.417,109.8,5.98,1.021,16.05,105.8839,14.34,15.37,42.62,0,110.4,13.29,15.14,71.8
"2010-10-12 00:57:30",239456,2.892,108.2,1.452,0.028,14.42,105.8848,14.34,15.18,42.44,0,110.4,13.33,15.14,70.2
"2010-10-12 00:58:00",239457,2.855,109.6,1.159,0.045,14.39,105.8857,14.34,15.18,42.42,0,110.4,13.33,15.14,71.6
"2010-10-12 00:58:30",239458,2.804,110.6,1.011,0.034,14.56,105.8863,14.34,15.19,42.4,0,110.4,13.33,15.14,72.6
"2010-10-12 00:59:00",239459,2.761,112,0.605,0.037,14.82,105.8863,14.34,15.19,42.39,0,110.4,13.33,15.14,74.0
"2010-10-12 00:59:30",239460,3.074,113.2,3.965,0.841,16.04,105.8863,14.34,15.33,42.58,0,110.4,13.29,15.14,75.2
"2010-10-12 01:00:00",239461,3.624,113.4,7.809,1.309,16.7,105.8863,14.34,15.19,42.52,0,110.4,13.29,15.14,75.4
"2010-10-12 01:00:30",239462,3.095,109.7,3.975,0.809,15.73,105.8863,14.34,15.33,42.71,0,110.4,13.29,15.14,71.7
"2010-10-12 01:01:00",239463,3.708,113,6.63,1.272,16.27,105.886,14.34,15.19,42.6,0,110.4,13.29,15.14,75.0
"2010-10-12 01:01:30",239464,2.676,111,1.222,0.054,14.71,105.8812,14.33,15.17,42.61,0,110.4,13.33,15.13,73.0
"2010-10-12 01:02:00",239465,2.62,112.7,0.717,0.025,14.54,105.8767,14.32,15.16,42.61,0,110.4,13.33,15.12,74.7
"2010-10-12 01:02:30",239466,2.659,113.2,0.406,0.038,14.72,105.8714,14.3,15.16,42.62,0,110.4,13.33,15.11,75.2
"2010-10-12 01:03:00",239467,2.661,114.2,0.487,0.037,14.91,105.8621,14.28,15.16,42.63,0,110.4,13.33,15.08,76.2
"2010-10-12 01:03:30",239468,2.599,113.6,1.281,0.033,14.97,105.8556,14.26,15.16,42.65,0,110.4,13.33,15.06,75.6
"2010-10-12 01:04:00",239469,2.499,112.2,0.584,0.024,15.03,105.8533,14.26,15.15,42.7,0,110.4,13.33,15.06,74.2
"2010-10-12 01:04:30",239470,2.642,113.2,3.85,0.493,15.83,105.8525,14.26,15.3,42.84,0,110.4,13.33,15.06,75.2
"2010-10-12 01:05:00",239471,3.665,118.3,6.723,1.345,17.29,105.8525,14.26,15.18,42.73,0,110.4,13.3,15.06,80.3
"2010-10-12 01:05:30",239472,3.147,114.8,5.593,1.128,16.04,105.8525,14.26,15.19,42.78,0,110.4,13.3,15.06,76.8
"2010-10-12 01:06:00",239473,3.372,116.4,6.087,1.247,16.66,105.8525,14.26,15.32,42.9,0,110.4,13.29,15.06,78.4
"2010-10-12 01:06:30",239474,3.238,111.3,5.419,1.011,15.11,105.8525,14.26,15.14,42.51,0,110.4,13.3,15.06,73.3
"2010-10-12 01:07:00",239475,2.772,110.9,0.837,0.063,14.21,105.8525,14.26,15.13,42.35,0,110.4,13.33,15.06,72.9
"2010-10-12 01:07:30",239476,2.739,110.6,0.932,0.037,14.3,105.8525,14.26,15.14,42.29,0,110.4,13.33,15.06,72.6
"2010-10-12 01:08:00",239477,2.804,110.7,0.755,0.04,14.52,105.8525,14.26,15.12,42.31,0,110.4,13.33,15.06,72.7
"2010-10-12 01:08:30",239478,2.731,110.8,1.01,0.065,14.78,105.8525,14.26,15.18,42.41,0,110.4,13.33,15.06,72.8
"2010-10-12 01:09:00",239479,3.866,116.6,7.665,1.359,17.3,105.8525,14.26,15.23,42.43,0,110.4,13.3,15.06,78.6
"2010-10-12 01:09:30",239480,3.803,117.6,7.591,1.339,17.26,105.8525,14.26,15.37,42.48,0,110.4,13.3,15.06,79.6
"2010-10-12 01:10:00",239481,4.084,117.9,7.027,1.236,16.67,105.8525,14.26,15.17,42.3,0,110.4,13.3,15.06,79.9
"2010-10-12 01:10:30",239482,2.941,116.7,1.926,0.075,14.42,105.8525,14.26,15.11,42.37,0,110.4,13.33,15.06,78.7
"2010-10-12 01:11:00",239483,2.692,118.6,0.771,0.066,14.21,105.8525,14.26,15.11,42.36,0,110.4,13.33,15.06,80.6
"2010-10-12 01:11:30",239484,2.676,119.4,1.278,0.041,14.31,105.8525,14.26,15.1,42.41,0,110.4,13.33,15.06,81.4
"2010-10-12 01:12:00",239485,2.64,115.8,0.885,0.08,14.62,105.8525,14.26,15.11,42.46,0,110.4,13.33,15.06,77.8
"2010-10-12 01:12:30",239486,2.538,116.1,1.879,0.057,14.69,105.8522,14.25,15.1,42.46,0,110.4,13.33,15.06,78.1
"2010-10-12 01:13:00",239487,2.631,116.3,1.794,0.101,14.94,105.8517,14.25,15.12,42.5,0,110.4,13.33,15.05,78.3
"2010-10-12 01:13:30",239488,2.538,116.1,1.5,0.046,15.18,105.8525,14.26,15.1,42.65,0,110.4,13.33,15.06,78.1
"2010-10-12 01:14:00",239489,3.3,117.1,7.794,1.282,17.34,105.8525,14.26,15.27,42.91,0,110.4,13.3,15.06,79.1
"2010-10-12 01:14:30",239490,2.946,114.7,6.292,0.999,16.11,105.8525,14.26,15.19,42.76,0,110.4,13.3,15.06,76.7
"2010-10-12 01:15:00",239491,2.54,113,2.074,0.071,15.29,105.8525,14.26,15.21,42.81,0,110.4,13.33,15.06,75.0
"2010-10-12 01:15:30",239492,3.91,120.4,5.695,1.361,17.13,105.8525,14.26,15.24,42.73,0,110.4,13.29,15.06,82.4
"2010-10-12 01:16:00",239493,2.646,114.7,2.509,0.075,14.51,105.8525,14.26,15.11,42.55,0,110.4,13.33,15.06,76.7
"2010-10-12 01:16:30",239494,2.703,110.6,1.115,0.051,14.29,105.8525,14.26,15.12,42.55,0,110.4,13.33,15.06,72.6
"2010-10-12 01:17:00",239495,2.712,115.6,1.384,0.103,14.52,105.8525,14.26,15.12,42.5,0,110.4,13.33,15.06,77.6
"2010-10-12 01:17:30",239496,2.758,112.4,1.367,0.061,14.61,105.8525,14.26,15.12,42.53,0,110.4,13.33,15.06,74.4
"2010-10-12 01:18:00",239497,2.723,113.2,1.561,0.065,14.89,105.8528,14.26,15.21,42.62,0,110.4,13.33,15.06,75.2
"2010-10-12 01:18:30",239498,4.357,123,6.779,1.292,18.9,105.8525,14.26,15.37,42.75,0,110.4,13.29,15.06,85.0
"2010-10-12 01:19:00",239499,3.15,117.2,7.512,1.165,16.47,105.8528,14.26,15.27,42.69,0,110.4,13.29,15.06,79.2
"2010-10-12 01:19:30",239500,2.552,114,1.384,0.044,14.6,105.8525,14.26,15.12,42.52,0,110.4,13.33,15.06,76.0
"2010-10-12 01:20:00",239501,2.449,116,1.158,0.06,14.35,105.8528,14.26,15.13,42.56,0,110.4,13.33,15.06,78.0
"2010-10-12 01:20:30",239502,2.489,113.8,1.157,0.063,14.38,105.8534,14.26,15.12,42.51,0,110.4,13.34,15.06,75.8
"2010-10-12 01:21:00",239503,2.464,112.5,0.71,0.035,14.49,105.8528,14.26,15.12,42.47,0,110.4,13.34,15.06,74.5
"2010-10-12 01:21:30",239504,2.426,111.7,0.432,0.004,14.61,105.8531,14.26,15.12,42.42,0,110.4,13.34,15.06,73.7
"2010-10-12 01:22:00",239505,2.345,113.3,1.011,0.054,14.9,105.854,14.26,15.14,42.45,0,110.4,13.34,15.06,75.3
"2010-10-12 01:22:30",239506,2.415,115.1,1.317,0.035,15.14,105.8549,14.26,15.13,42.48,0,110.4,13.34,15.06,77.1
"2010-10-12 01:23:00",239507,2.36,115,0.902,0.054,15.32,105.8537,14.26,15.13,42.48,0,110.4,13.34,15.06,77.0
"2010-10-12 01:23:30",239508,2.589,120.2,5.423,0.933,16.6,105.8552,14.26,15.29,42.61,0,110.4,13.3,15.06,82.2
"2010-10-12 01:24:00",239509,3.308,123.7,6.707,1.356,17.17,105.8543,14.26,15.13,42.32,0,110.4,13.3,15.06,85.7
"2010-10-12 01:24:30",239510,3.526,123.6,7.192,1.354,17.77,105.8555,14.26,15.29,42.5,0,110.4,13.3,15.06,85.6
"2010-10-12 01:25:00",239511,2.372,119.8,3.413,0.535,15.72,105.8561,14.26,15.28,42.45,0,110.4,13.3,15.07,81.8
"2010-10-12 01:25:30",239512,2.734,122,4.837,1.103,15.58,105.8536,14.26,15.17,42.3,0,110.4,13.3,15.06,84.0
"2010-10-12 01:26:00",239513,2.254,118.4,0.905,0.04,14.25,105.8551,14.26,15.11,42.29,0,110.4,13.34,15.06,80.4
"2010-10-12 01:26:30",239514,2.198,117.5,0.824,0.021,14.24,105.8525,14.26,15.14,42.27,0,110.4,13.34,15.06,79.5
"2010-10-12 01:27:00",239515,2.103,118.3,0.963,0.036,14.54,105.8521,14.25,15.12,42.21,0,110.4,13.34,15.06,80.3
"2010-10-12 01:27:30",239516,2.722,121.4,5.321,1.125,15.61,105.845,14.24,15.14,42.19,0,110.4,13.3,15.04,83.4
"2010-10-12 01:28:00",239517,3.304,125.9,6.648,1.335,17.5,105.8512,14.25,15.33,42.44,0,110.4,13.3,15.05,87.9
"2010-10-12 01:28:30",239518,2.911,120.7,7.276,1.261,16.18,105.8446,14.23,15.18,42.38,0,110.4,13.3,15.04,82.7
"2010-10-12 01:29:00",239519,3.001,120.6,6.901,1.32,16.73,105.8447,14.24,15.23,42.44,0,110.4,13.3,15.04,82.6
"2010-10-12 01:29:30",239520,2.03,113.8,0.76,0.037,14.35,105.8465,14.24,15.12,42.39,0,110.4,13.34,15.04,75.8
"2010-10-12 01:30:00",239521,1.988,112.4,0.733,0.024,14.29,105.8467,14.24,15.13,42.37,0,110.4,13.34,15.04,74.4
"2010-10-12 01:30:30",239522,2.068,112,0.339,0.064,14.42,105.8471,14.24,15.11,42.39,0,110.4,13.34,15.04,74.0
"2010-10-12 01:31:00",239523,2.131,111.8,0.387,0.033,14.57,105.8457,14.24,15.13,42.38,0,110.4,13.35,15.04,73.8
"2010-10-12 01:31:30",239524,2.146,110.8,0.47,0.025,14.79,105.8475,14.24,15.13,42.37,0,110.4,13.34,15.04,72.8
"2010-10-12 01:32:00",239525,2.108,111.6,0.371,0.036,14.98,105.8479,14.24,15.13,42.37,0,110.4,13.34,15.05,73.6
"2010-10-12 01:32:30",239526,2.164,112.5,1.113,0.063,15.2,105.8477,14.24,15.13,42.02,0,110.4,13.34,15.04,74.5
"2010-10-12 01:33:00",239527,2.109,112.5,0.946,0.032,15.27,105.8472,14.24,15.12,41.99,0,110.4,13.34,15.04,74.5
"2010-10-12 01:33:30",239528,2.19,111.7,0.56,0.254,15.4,105.8475,14.24,15.12,42.35,0,110.4,13.3,15.04,73.7
"2010-10-12 01:34:00",239529,3.448,118.1,8.79,1.383,17.71,105.8494,14.25,15.3,42.21,0,110.4,13.3,15.05,80.1
"2010-10-12 01:34:30",239530,2.808,111.4,5.979,1.128,16.04,105.8485,14.24,15.13,42.06,0,110.4,13.3,15.05,73.4
"2010-10-12 01:35:00",239531,3.625,116.1,7.275,1.365,17.35,105.8515,14.25,15.32,42.06,0,110.4,13.3,15.05,78.1
"2010-10-12 01:35:30",239532,2.245,108.8,1.158,0.052,14.64,105.8493,14.25,15.12,41.85,0,110.4,13.34,15.05,70.8
"2010-10-12 01:36:00",239533,2.317,108.9,1.395,0.081,14.48,105.8503,14.25,15.14,41.87,0,110.4,13.34,15.05,70.9
"2010-10-12 01:36:30",239534,2.511,108.3,1.302,0.049,14.54,105.8515,14.25,15.13,41.86,0,110.4,13.34,15.05,70.3
"2010-10-12 01:37:00",239535,3.115,112.5,5.54,1.125,15.66,105.8527,14.26,15.17,42.03,0,110.4,13.3,15.06,74.5
"2010-10-12 01:37:30",239536,3.765,116.8,7.666,1.378,16.85,105.8533,14.26,15.25,42.03,0,110.4,13.31,15.06,78.8
"2010-10-12 01:38:00",239537,2.503,107.4,0.88,0.035,14.6,105.8536,14.26,15.12,41.89,0,110.4,13.35,15.06,69.4
"2010-10-12 01:38:30",239538,3.552,111.8,7.387,1.328,16.75,105.8539,14.26,15.29,41.88,0,110.4,13.31,15.06,73.8
"2010-10-12 01:39:00",239539,2.522,107,0.841,0.059,14.67,105.8545,14.26,15.19,41.71,0,110.4,13.35,15.06,69.0
"2010-10-12 01:39:30",239540,2.42,109.2,0.92,0.037,14.4,105.8542,14.26,15.13,41.75,0,110.4,13.35,15.06,71.2
"2010-10-12 01:40:00",239541,2.511,109.9,0.852,0.044,14.43,105.8542,14.26,15.13,41.92,0,110.4,13.35,15.06,71.9
"2010-10-12 01:40:30",239542,2.562,107.4,1.833,0.039,14.59,105.8545,14.26,15.13,42,0,110.4,13.35,15.06,69.4
"2010-10-12 01:41:00",239543,2.552,105.9,0.549,0.076,14.7,105.8545,14.26,15.12,41.92,0,110.4,13.35,15.06,67.9
"2010-10-12 01:41:30",239544,2.746,106,0.74,0.064,14.94,105.8545,14.26,15.13,41.33,0,110.4,13.35,15.06,68.0
"2010-10-12 01:42:00",239545,2.778,106.6,0.727,0.039,15.15,105.8548,14.26,15.14,41.22,0,110.4,13.35,15.06,68.6
"2010-10-12 01:42:30",239546,2.85,106.4,0.701,0.057,15.26,105.8548,14.26,15.13,40.92,0,110.4,13.35,15.06,68.4
"2010-10-12 01:43:00",239547,3.486,108.4,5.684,1.142,16.36,105.8548,14.26,15.17,40.67,0,110.4,13.31,15.06,70.4
"2010-10-12 01:43:30",239548,3.437,107.7,4.936,1.053,16.15,105.8553,14.26,15.21,40.92,0,110.4,13.31,15.06,69.7
"2010-10-12 01:44:00",239549,4.574,110.7,6.699,1.328,18.63,105.8548,14.26,15.32,40.9,0,110.4,13.31,15.06,72.7
"2010-10-12 01:44:30",239550,3.4,104.7,4.884,0.815,16.02,105.8556,14.26,15.32,40.46,0,110.4,13.31,15.06,66.7
"2010-10-12 01:45:00",239551,2.968,102.6,2.454,0.064,14.52,105.8556,14.26,15.16,39.98,0,110.4,13.35,15.06,64.6
"2010-10-12 01:45:30",239552,2.968,96.5,3.678,0.791,14.56,105.8556,14.26,15.15,40.05,0,110.4,13.32,15.06,58.5
"2010-10-12 01:46:00",239553,3.247,101.5,8.53,1.25,16.03,105.8545,14.26,15.3,40.06,0,110.4,13.32,15.06,63.5
"2010-10-12 01:46:30",239554,3.184,109.9,4.737,0.919,14.77,105.8545,14.26,15.12,39.78,0,110.4,13.32,15.06,71.9
"2010-10-12 01:47:00",239555,3.035,121.6,6.461,1.044,14.97,105.8426,14.23,15.1,39.8,0,110.4,13.32,15.03,83.6
"2010-10-12 01:47:30",239556,3.621,112.6,6.804,0.992,15.13,105.8206,14.17,15.22,40.25,0,110.3,13.32,14.97,74.6
"2010-10-12 01:48:00",239557,4.197,117.2,5.346,1.341,15.84,105.8142,14.16,15.07,40.27,0,110.4,13.31,14.96,79.2
"2010-10-12 01:48:30",239558,3.01,115.2,4.506,0.184,14.25,105.7882,14.09,15.02,40.42,0,110.4,13.35,14.89,77.2
"2010-10-12 01:49:00",239559,2.9,110.7,2.961,0.124,14.63,105.7868,14.09,15.01,40.79,0,110.4,13.35,14.89,72.7